Location: Fours
(44.3167°N, 6.7000°E)
Time: 14:33:21
(UTC+00:00)

SAR-Lupe-4 - Visible Passes

Search period start: 12 April 2021 00:00
Search period end: 22 April 2021 00:00
Orbit: 481 x 485 km, 98.2° (Epoch: 26 March)

Date Brightness Start Highest point End Pass type
(mag) Time Alt. Az. Time Alt. Az. Time Alt. Az.
12 Apr 3.5 18:40:25 10° NNE 18:44:01 68° ESE 18:47:35 10° S visible
13 Apr 6.7 19:49:39 10° NNW 19:52:09 18° WNW 19:54:38 10° WSW visible
14 Apr 5.5 19:24:09 10° N 19:27:25 33° WNW 19:30:41 10° SW visible
15 Apr 3.9 18:59:00 10° N 19:02:36 71° WNW 19:06:10 10° SSW visible
16 Apr 7.1 20:09:10 10° NW 20:10:34 12° WNW 20:11:57 10° W visible
17 Apr 6.4 19:43:04 10° NNW 19:45:53 22° WNW 19:48:41 10° WSW visible
18 Apr 5.0 19:17:42 10° N 19:21:07 42° WNW 19:24:31 10° SW visible
19 Apr 3.6 18:52:39 10° NNE 18:56:16 90° E 18:59:51 10° SSW visible
20 Apr 6.9 20:02:16 10° NNW 20:04:17 15° WNW 20:06:18 10° W visible
21 Apr 6.0 19:36:31 10° N 19:39:35 27° WNW 19:42:37 10° SW visible
